Weather - Helsinki Query any day in the database

Current weather  

Weather data for a selected day (2006-01-01 -2020-12-04)
Enter date:     <-     scroll days         ->
day curves
Low temperature°C -8.017:50
High temperature°C -3.015:20
Low wind chill°C -14.900:20
Average temperature°C -5.7 
High wind speed (10 min) m/s 7.002:50
Low pressurehPa 1038.004:50
High pressurehPa 1041.022:20
Low R.H% 7315:20
High R.H% 10023:50
Day weather data as a table
Date Time Temp
°C
Chill
°C
Pressure
hPA
Wind
m/s
Hum
%
Precip
mm
2012-02-06 23:50:00 -6.0  -12.4  1040.0 5.0 100 -
2012-02-06 23:20:00 -6.0  -11.7  1040.0 4.0 100 -
2012-02-06 22:50:00 -6.0  -11.7  1040.0 4.0 100 -
2012-02-06 22:20:00 -6.0  -11.7  1041.0 4.0 100 -
2012-02-06 21:50:00 -6.0  -11.7  1040.0 4.0 100 -
2012-02-06 21:20:00 -6.0  -11.7  1040.0 4.0 92 -
2012-02-06 20:50:00 -6.0  -12.4  1040.0 5.0 92 -
2012-02-06 20:20:00 -6.0  -12.4  1040.0 5.0 92 -
2012-02-06 19:50:00 -6.0  -12.4  1040.0 5.0 92 -
2012-02-06 19:20:00 -7.0  -12.9  1040.0 4.0 92 -
2012-02-06 18:50:00 -7.0  -12.9  1040.0 4.0 92 -
2012-02-06 17:50:00 -8.0  -13.1  1040.0 3.0 85 -
2012-02-06 17:20:00 -6.0  -10.7  1040.0 3.0 85 -
2012-02-06 16:50:00 -5.0  -9.5  1040.0 3.0 85 -
2012-02-06 16:20:00 -5.0  -9.5  1040.0 3.0 79 -
2012-02-06 15:50:00 -4.0  -8.3  1040.0 3.0 79 -
2012-02-06 15:20:00 -3.0  -7.1  1040.0 3.0 73 -
2012-02-06 14:50:00 -4.0  -9.2  1040.0 4.0 79 -
2012-02-06 13:50:00 -3.0  -8.0  1040.0 4.0 79 -
2012-02-06 13:20:00 -4.0  -9.2  1040.0 4.0 79 -
2012-02-06 12:50:00 -5.0  -9.5  1040.0 3.0 85 -
2012-02-06 12:20:00 -5.0  -10.4  1040.0 4.0 92 -
2012-02-06 11:50:00 -5.0  -10.4  1040.0 4.0 92 -
2012-02-06 11:20:00 -5.0  -11.2  1040.0 5.0 92 -
2012-02-06 10:20:00 -6.0  -11.7  1040.0 4.0 92 -
2012-02-06 09:20:00 -5.0  -11.2  1040.0 5.0 85 -
2012-02-06 08:50:00 -6.0  -12.4  1040.0 5.0 92 -
2012-02-06 08:20:00 -6.0  -12.4  1040.0 5.0 92 -
2012-02-06 07:50:00 -6.0  -13.1  1039.0 6.0 92 -
2012-02-06 07:20:00 -5.0  -11.8  1039.0 6.0 92 -
2012-02-06 06:50:00 -5.0  -10.4  1039.0 4.0 92 -
2012-02-06 06:20:00 -5.0  -11.2  1039.0 5.0 85 -
2012-02-06 05:50:00 -6.0  -12.4  1039.0 5.0 92 -
2012-02-06 05:20:00 -6.0  -12.4  1039.0 5.0 92 -
2012-02-06 04:50:00 -6.0  -12.4  1038.0 5.0 92 -
2012-02-06 04:20:00 -6.0  -12.4  1038.0 5.0 92 -
2012-02-06 03:50:00 -6.0  -13.1  1038.0 6.0 92 -
2012-02-06 03:20:00 -6.0  -13.1  1038.0 6.0 92 -
2012-02-06 02:50:00 -6.0  -13.6  1038.0 7.0 85 -
2012-02-06 02:20:00 -6.0  -13.1  1038.0 6.0 85 -
2012-02-06 01:50:00 -7.0  -14.4  1038.0 6.0 92 -
2012-02-06 01:20:00 -7.0  -14.4  1038.0 6.0 92 -
2012-02-06 00:50:00 -7.0  -14.4  1038.0 6.0 92 -
2012-02-06 00:20:00 -7.0  -14.9  1038.0 7.0 92 -
Unit conversions: